Regional Weather Roundup
Issued by NWS

Home | Current Version | Previous Version | Text Only | Print | Product List | Glossary Off
Versions: 1 2 3 4 5 6 7 8 9 10 11 12 13 14 15 16 17 18 19 20 21 22 23 24 25 26 27 28 29 30 31 32 33 34 35 36 37 38 39 40 41 42 43 44 45 46 47 48 49 50

000
ASUS45 KBOU 242307
RWRCO

WEATHER ROUNDUP FOR COLORADO
NATIONAL WEATHER SERVICE DENVER/BOULDER CO
500 PM MDT SUN MAY 24 2015

NOTE: "FAIR" INDICATES FEW OR NO CLOUDS BELOW 12000 FEET WITH NO
SIGNIFICANT WEATHER AND/OR OBSTRUCTIONS TO VISIBILITY.

COZ001>005-013-030-031-250000-
...NORTHWEST COLORADO...

CITY           SKY/WX    TMP DP  RH WIND       PRES   REMARKS
CRAIG          LGT RAIN  46  41  82 SW8       29.95S
HAYDEN         CLOUDY    43  37  81 NW7       29.95S
MEEKER         LGT RAIN  46  41  82 W7        29.95S
MOUNT WERNER   NOT AVBL
STEAMBOAT SPGS CLOUDY    42  38  86 SW8       29.95R
WALDEN         CLOUDY    48  30  49 S10G18    29.93S
$$

COZ006>008-011-250000-
...WEST CENTRAL VALLEYS...

CITY           SKY/WX    TMP DP  RH WIND       PRES   REMARKS
GRAND JUNCTION CLOUDY    60  39  45 N16       29.88F
MONTROSE       PTSUNNY   56  40  55 SE8       29.92F
EAGLE          CLOUDY    52  37  58 S18       29.93F
RIFLE          RAIN      49  43  80 N6        29.95S
DELTA          PTSUNNY   64  39  39 MISG      29.89S
NUCLA          PTSUNNY   61  36  39 SW13      29.95F
$$

COZ017>023-064>068-250000-
...SOUTHWEST COLORADO...

CITY           SKY/WX    TMP DP  RH WIND       PRES   REMARKS
DURANGO        MOSUNNY   60  36  40 SW14G24   29.93F
CORTEZ         PTSUNNY   57  42  57 W14       29.95S
PAGOSA SPRINGS MOSUNNY   48  38  68 W17       29.99S
TELLURIDE      LGT RAIN  41  36  82 W12       30.05R
WOLF CREEK PAS NOT AVBL
$$

COZ009-010-012-014-032>034-037-058>063-250000-
...CENTRAL COLORADO...

CITY           SKY/WX    TMP DP  RH WIND       PRES   REMARKS
ASPEN          CLOUDY    46  36  68 N8        29.95F
BUENA VISTA    CLOUDY    59  24  25 W15       29.86F
COPPER MTN     LGT SNOW  34  28  80 W25G32    30.05S VSB 3/4 WCI  21
BERTHOUD PASS  HAZE      27  19  74 NW9G16    30.06S THUNDER VSB<1/4
COTTONWOOD PAS MOSUNNY   52  18  25 W10G20    29.95F THUNDER
GUNNISON       PTSUNNY   52  28  40 W9        29.96S
KREMMLING      CLOUDY    46  37  71 N9        29.94S
LEADVILLE      PTSUNNY   42  24  49 NW14G23   29.97R
SALIDA         PTSUNNY   60  30  32 S16G25    29.93F
SUNLIGHT       LGT SNOW  34  34 100 CALM      30.07S VSB 3/4
WILKERSON PASS PTSUNNY   36  32  87 NE6       30.03F
$$

COZ069>075-250000-
...SAN LUIS VALLEY/SANGRE DE CRISTO MOUNTAINS...

CITY           SKY/WX    TMP DP  RH WIND       PRES   REMARKS
ALAMOSA        LGT RAIN  48  37  65 SE8       29.94S
LA VETA PASS   CLOUDY   N/A N/A N/A MISG      29.99F
SAGUACHE       PTSUNNY   52  36  54 S16       29.93F
$$

COZ035-036-038>040-250000-
...NORTHERN COLORADO FRONT RANGE...

CITY           SKY/WX    TMP DP  RH WIND       PRES   REMARKS
DENVER INTL AP PTSUNNY   58  38  47 W5        29.82F
DMNS CITY PARK   N/A     60  43  51 W5        29.83F
AURORA         PTSUNNY   55  37  52 SW2       29.84F
FRONT RANGE AP PTSUNNY   57  43  58 S3        29.82F
ERIE MUNI ARPT CLOUDY    59  43  56 W8        29.82F THUNDER
BOULDER MUN AP CLOUDY    54  43  66 SW7       29.83F
CENTENNIAL     CLOUDY    54  40  59 VRB5      29.84F
BROOMFIELD     PTSUNNY   57  45  62 CALM      29.85F
FORT COLLINS   CLOUDY    57  43  58 S8        29.83F
LONGMONT       CLOUDY    62  44  51 SW9       29.85F
$$

COZ041-046-047-076>085-087-088-250000-
...PIKES PEAK/PALMER DIVIDE AND SOUTHERN FOOTHILLS...

CITY           SKY/WX    TMP DP  RH WIND       PRES   REMARKS
COLO. SPRINGS  CLOUDY    51  43  74 NE6       29.83F
A. F. ACADEMY  CLOUDY    48  42  80 S8        29.85F
ELLICOTT       NOT AVBL
FALCON         CLOUDY    49  40  69 S15       29.86F
FORT CARSON    CLOUDY    55  41  60 SW2       29.82F
LIMON          PTSUNNY   60  41  49 SW13      29.80F
MONUMENT HILL  NOT AVBL
TRINIDAD       LGT RAIN  50  39  66 NW15G31   29.87R
$$

COZ042>045-048>051-090-091-250000-
...NORTHEAST COLORADO...

CITY           SKY/WX    TMP DP  RH WIND       PRES   REMARKS
GREELEY ARPT   CLOUDY    61  43  51 SE12      29.81F
AKRON          CLOUDY    49  46  90 N15       29.82F
BURLINGTON     PTSUNNY   66  54  65 SE18      29.77S
WRAY           MOSUNNY   66  51  57 E7        29.75F
STERLING       LGT RAIN  50  48  93 CALM      29.81F
HOLYOKE        NOT AVBL
FORT MORGAN    CLOUDY    55  48  76 N13       29.80F
$$

COZ086-089-092>099-250000-
...SOUTHEAST COLORADO...

CITY           SKY/WX    TMP DP  RH WIND       PRES   REMARKS
PUEBLO         CLOUDY    59  44  57 CALM      29.79F
LA JUNTA       LGT RAIN  61  50  67 E8        29.79R
LAMAR          LGT RAIN  59  55  87 NW7G21    29.77R
SPRINGFIELD      N/A     67  50  54 SE16      29.74F
$$



USA.gov is the U.S. government's official web portal to all federal, state and local government web resources and services.